Regional Weather Roundup
Issued by NWS

Home | Current Version | Previous Version | Text Only | Print | Product List | Glossary Off
Versions: 1 2 3 4 5 6 7 8 9 10 11 12 13 14 15 16 17 18 19 20 21 22 23 24 25 26 27 28 29 30 31 32 33 34 35 36 37 38 39 40 41 42 43 44 45 46 47 48 49 50

000
ASUS43 KMKX 020521
RWRWI

WISCONSIN REGIONAL WEATHER ROUNDUP
NATIONAL WEATHER SERVICE MILWAUKEE/SULLIVAN WI
1200 AM CDT SUN AUG 02 2015

NOTE: "FAIR" INDICATES FEW OR NO CLOUDS BELOW 12,000 FEET WITH NO
SIGNIFICANT WEATHER AND/OR OBSTRUCTIONS TO VISIBILITY.

WIZ001-002-006>008-014>016-023>028-020600-
NORTHWEST WISCONSIN

CITY           SKY/WX    TMP DP  RH WIND       PRES   REMARKS
SUPERIOR ARPT  CLEAR     62  58  88 CALM      29.71S
ASHLAND        PTCLDY    63  57  81 W5        29.73F
HAYWARD        CLEAR     66  58  75 CALM      29.77F
SIREN          CLEAR     69  61  76 CALM      29.75F
CUMBERLAND     CLEAR     64  61  88 CALM      29.78S
RICE LAKE      CLEAR     66  61  82 SE5       29.78F
CHETEK         CLEAR     67  64  88 SE3       29.77F
LADYSMITH      PTCLDY    69  61  77 S5        29.80F
EAU CLAIRE     PTCLDY    66  63  90 CALM      29.78F
MENOMONIE      MOCLDY    68  65  90 CALM      29.78F
NEW RICHMOND   PTCLDY    71  67  87 S8        29.78S
OSCEOLA        PTCLDY    69  68  98 S3        29.79S
$$

WIZ003>005-009-010-017-018-020600-
NORTH CENTRAL WISCONSIN

CITY           SKY/WX    TMP DP  RH WIND       PRES   REMARKS
MANITOWISH WTR PTCLDY    59  56  92 SW3       29.79S
ARBOR VITAE    CLEAR     59  56  89 CALM      29.80S
WOODRUFF       CLEAR     59  56  89 CALM      29.80S
RHINELANDER    CLEAR     66  56  70 SW8       29.81F
EAGLE RIVER    CLEAR     61  53  75 SW8       29.79F
LAND O LAKES   CLEAR     55  53  91 CALM      29.80F
PHILLIPS       CLEAR     65  58  80 S5        29.78F
TOMAHAWK       PTCLDY    63  57  80 SW3       29.81F
MEDFORD        MOCLDY    64  59  83 S5        29.82F
MERRILL        NOT AVBL
$$

WIZ029-030-035-036-043>047-020600-
CENTRAL WISCONSIN

CITY           SKY/WX    TMP DP  RH WIND       PRES   REMARKS
WAUSAU         PTCLDY    67  58  72 S7        29.81F
MOSINEE        PTCLDY    63  59  88 SW6       29.84F
MARSHFIELD     CLEAR     64  58  80 SW3       29.83F
STEVENS POINT  PTCLDY    66  57  72 S5        29.84F
WAUPACA        CLEAR     64  58  81 CALM      29.83S
WAUTOMA        PTCLDY    63  59  87 CALM      29.85S
WISC RAPIDS    PTCLDY    66  59  78 CALM      29.84F
CAMP DOUGLAS   PTCLDY    64  64 100 SE2       29.84S
$$

WIZ011>013-019>022-031-037>040-048>050-020600-
NORTHEAST WISCONSIN

CITY           SKY/WX    TMP DP  RH WIND       PRES   REMARKS
ANTIGO         PTCLDY    61  55  82 SW5       29.83S
SHAWANO        PTCLDY    66  56  69 SW3       29.81F
OCONTO         CLEAR     60  56  87 CALM      29.79S
STURGEON BAY   PTCLDY    66  52  59 SW6       29.82S
GREEN BAY      CLEAR     62  56  80 SW3       29.81F
MANITOWOC      CLEAR     64  56  75 MISG      29.82F
APPLETON       CLEAR     68  54  60 SW8       29.82F
CLINTONVILLE   CLEAR     63  54  72 CALM      29.81S
OSHKOSH        CLEAR     70  58  65 SW5       29.82F
$$

WIZ032>034-041-042-053>061-020600-
SOUTHWEST WISCONSIN

CITY           SKY/WX    TMP DP  RH WIND       PRES   REMARKS
LA CROSSE      PTCLDY    77  68  73 S13       29.81F
SPARTA         PTCLDY    67  61  81 CALM      29.83F
VIROQUA        PTCLDY    72  68  87 SW8       29.87S
BOSCOBEL       CLEAR     69  66  90 CALM      29.86S
PRAIRIE DU CHI CLEAR     75  67  78 CALM      29.86S
PLATTEVILLE    CLEAR     71  69  93 S5        29.90S
$$

WIZ056-057-062-063-064-067-068-020600-
SOUTH CENTRAL WISCONSIN

CITY           SKY/WX    TMP DP  RH WIND       PRES   REMARKS
REEDSBURG      PTCLDY    73  64  74 S3        29.85S
BARABOO/DELLS  PTCLDY    72  61  67 SW8       29.86S
LONE ROCK      PTCLDY    67  63  87 CALM      29.86F
MINERAL POINT  PTCLDY    73  70  88 SW8       29.89F
MADISON        PTCLDY    76  66  71 SW7       29.86S
MIDDLETON      MOCLDY    75  66  73 SW9       29.87S
WATERTOWN      CLEAR     66  65  94 SW3       29.86R
MONROE         CLEAR     72  68  88 SW12      29.90S
JANESVILLE     CLEAR     70  68  94 SW6       29.87F
$$

WIZ051-052-058>065-066-070>072-020600-
SOUTHEAST WISCONSIN

CITY           SKY/WX    TMP DP  RH WIND       PRES   REMARKS
MILWAUKEE      CLEAR     70  61  73 SW5       29.85F
WAUKESHA       CLEAR     66  59  77 SW6       29.87S
MILWAUKEE/TIMM CLEAR     68  59  73 SW3       29.86S
RACINE         CLEAR     70  63  78 SW6       29.87F
BURLINGTON     CLEAR     64  63  96 SW5       29.87S
KENOSHA        CLEAR     70  65  84 SW8       29.87F
FOND DU LAC    CLEAR     69  59  70 SW7       29.84S
SHEBOYGAN      CLEAR     62  58  86 CALM      29.83F
WEST BEND      CLEAR     63  59  88 CALM      29.85S
JUNEAU         CLEAR     67  61  81 CALM      29.87S
$$

LSZ147-162-020600-
LAKE SUPERIOR

STATION/POSITION TIME  TEMP    WIND        PRES    WAVE
                       AIR SEA DIR/SP/G            HT/PER
                 (UTC) (F)     (DEG/KT/KT) (MB)    (FT/S)
W MID LAKE BUOY  0450   61 56  230/  8/  8 1005.2F   1
DEVILS ISLAND    0500   68     240/  9/ 10 1005.5F
PORT WING        0440   69     160/  3/  5 1006.4F
SAXON HARBOR     0440   67                 1006.1F
$$

LMZ867-665-643>646-020600-
LAKE MICHIGAN

STATION/POSITION TIME  TEMP    WIND        PRES    WAVE
                       AIR SEA DIR/SP/G            HT/PER
                 (UTC) (F)     (DEG/KT/KT) (MB)    (FT/S)
CHAMBERS ISLAND  0400   71     200/  5/  7 1008.5F
S GREEN BAY BUOY 0500   70 69  220/  8/ 10 1010.4
N MID LAKE BUOY  0450   70 69  220/ 12/ 14 1007.8F   2/ 4
NORTHPORT PIER   0500   67     190/  1/ 21 1008.5S
SISTER BAY       0444   73     230/  8/  9   N/A
ALGOMA LAKESHORE 0412             CALM       N/A
KEWAUNEE LAKESHO 0500   66      CALM  /  2 1008.8F
SHEBOYGAN LAKESH 0500   68     200/  4/  5 1010.1F
PORT WASHINGTON  0440   67     250/  2/  4 1011.2F
ATWATER BUOY     0500   68 63  180/  6/  8 1012.0F
MILWAUKEE LAKESH 0500   72     230/  6/  7   N/A
KENOSHA   LAKESH 0500   75     250/  9/ 13 1010.8F
$$

TC  - TEMPERATURE IN CELSIUS
VSB - VISIBILITY IN STATUTE MILES
WCI - WIND CHILL INDEX
HX  - HEAT INDEX




USA.gov is the U.S. government's official web portal to all federal, state and local government web resources and services.